Tracking 28125 objects as of 3-Oct-2023
HD Live streaming from Space Station
objects crossing your sky now

STARLINK-4300

Track STARLINK-4300 now!
10-day predictions
STARLINK-4300 is classified as:


NORAD ID: 53173
Int'l Code: 2022-083AT
Perigee: 546.0 km
Apogee: 547.7 km
Inclination: 53.2 °
Period: 95.4 minutes
Semi major axis: 6917 km
RCS: Unknown
Launch date: July 17, 2022
Source: United States (US)
Launch site: AIR FORCE EASTERN TEST RANGE (AFETR)
Your satellite tracking list
Your tracking list is empty




NASA's NSSDC Master Catalog

Two Line Element Set (TLE):
1 53173U 22083AT  23275.85572197  .00017769  00000-0  11315-2 0  9990
2 53173  53.2150 169.2421 0001278  98.9045 261.2092 15.08847600 68156
Source of the keplerian elements: AFSPC